,,,PA_Meas_PMT16A,,PR_Meas_QMR101_102,,RH_Meas_QMH101,,SR_Meas_QMS101,,TA_Meas_QMH101,,GenWind,,GenWind,
date,time,status,PA,status,PR,status,RH,status,SR,status,TA,status,DirAvg,status,SpdAvg,
2011-07-19, 00:00:04,VALID,1005.51,VALID,0,VALID,104,VALID,0.100563,VALID,24.6148,VALID,85,VALID,0,
2011-07-19, 00:01:04,VALID,1005.49,VALID,0,VALID,104,VALID,0,VALID,24.6166,VALID,85,VALID,0,
2011-07-19, 00:02:04,VALID,1005.5,VALID,0,VALID,104,VALID,0,VALID,24.5972,VALID,85,VALID,0,
2011-07-19, 00:03:04,VALID,1005.49,VALID,0,INVALID,113.922,VALID,0,VALID,24.5777,VALID,85,VALID,0,
2011-07-19, 00:04:04,VALID,1005.5,VALID,0,INVALID,117.82,VALID,0,VALID,24.5388,VALID,85,VALID,0,
2011-07-19, 00:05:04,VALID,1005.47,VALID,0,INVALID,129.981,VALID,0.100563,VALID,24.5193,VALID,85,VALID,0,
2011-07-19, 00:06:04,VALID,1005.47,VALID,0,INVALID,145.101,VALID,0,VALID,24.4804,VALID,110,VALID,0,
2011-07-19, 00:07:04,VALID,1005.43,VALID,0,INVALID,163.647,VALID,0.100563,VALID,24.4628,VALID,113,VALID,0,
2011-07-19, 00:08:04,VALID,1005.43,VALID,0,INVALID,163.693,VALID,0,VALID,24.4025,VALID,105,VALID,0,
2011-07-19, 00:09:04,VALID,1005.41,VALID,0,INVALID,163.701,VALID,0,VALID,24.383,VALID,104,VALID,0,
2011-07-19, 00:10:04,VALID,1005.41,VALID,0,INVALID,163.708,VALID,0,VALID,24.383,VALID,104,VALID,0,
2011-07-19, 00:11:04,VALID,1005.4,VALID,0,INVALID,163.685,VALID,0,VALID,24.4043,VALID,104,VALID,0,
2011-07-19, 00:12:04,VALID,1005.43,VALID,0,INVALID,163.716,VALID,0,VALID,24.383,VALID,104,VALID,0,
2011-07-19, 00:13:04,VALID,1005.42,VALID,0,INVALID,163.723,VALID,0,VALID,24.3636,VALID,104,VALID,0,
2011-07-19, 00:14:04,VALID,1005.42,VALID,0,INVALID,163.723,VALID,0,VALID,24.3441,VALID,69,VALID,0,
2011-07-19, 00:15:04,VALID,1005.4,VALID,0,INVALID,163.723,VALID,0,VALID,24.3459,VALID,69,VALID,0,
2011-07-19, 00:16:04,VALID,1005.39,VALID,0,INVALID,163.701,VALID,0,VALID,24.307,VALID,69,VALID,0,
2011-07-19, 00:17:04,VALID,1005.4,VALID,0,INVALID,163.716,VALID,0,VALID,24.2662,VALID,69,VALID,0,
2011-07-19, 00:18:04,VALID,1005.39,VALID,0,INVALID,163.739,VALID,0,VALID,24.2468,VALID,69,VALID,0,
2011-07-19, 00:19:04,VALID,1005.36,VALID,0,INVALID,163.716,VALID,0,VALID,24.2078,VALID,69,VALID,0,
2011-07-19, 00:20:04,VALID,1005.38,VALID,0,INVALID,163.777,VALID,0,VALID,24.1494,VALID,69,VALID,0,
2011-07-19, 00:21:04,VALID,1005.35,VALID,0,INVALID,163.739,VALID,0,VALID,24.1087,VALID,69,VALID,0,
2011-07-19, 00:22:04,VALID,1005.34,VALID,0,INVALID,163.754,VALID,0,VALID,24.091,VALID,69,VALID,0,
2011-07-19, 00:23:04,VALID,1005.34,VALID,0,INVALID,163.746,VALID,0,VALID,24.0521,VALID,69,VALID,0,
2011-07-19, 00:24:04,VALID,1005.33,VALID,0,INVALID,163.716,VALID,0,VALID,24.0132,VALID,69,VALID,0,
2011-07-19, 00:25:04,VALID,1005.31,VALID,0,INVALID,163.723,VALID,0,VALID,24.015,VALID,60,VALID,0,
2011-07-19, 00:26:04,VALID,1005.31,VALID,0,INVALID,163.8,VALID,0.100563,VALID,23.9548,VALID,56,VALID,0,
2011-07-19, 00:27:04,VALID,1005.26,VALID,0,INVALID,163.746,VALID,0,VALID,23.9566,VALID,56,VALID,0,
2011-07-19, 00:28:04,VALID,1005.28,VALID,0,INVALID,163.754,VALID,0,VALID,23.8946,VALID,56,VALID,0,
2011-07-19, 00:29:04,VALID,1005.3,VALID,0,INVALID,163.777,VALID,0,VALID,23.8964,VALID,56,VALID,0,
2011-07-19, 00:30:04,VALID,1005.26,VALID,0,INVALID,163.762,VALID,0,VALID,23.8769,VALID,56,VALID,0,
2011-07-19, 00:31:04,VALID,1005.28,VALID,0,INVALID,163.769,VALID,0,VALID,23.8593,VALID,56,VALID,0,
2011-07-19, 00:32:04,VALID,1005.25,VALID,0,INVALID,163.739,VALID,0.100563,VALID,23.838,VALID,56,VALID,0,
2011-07-19, 00:33:04,VALID,1005.27,VALID,0,INVALID,163.754,VALID,0,VALID,23.8185,VALID,56,VALID,0,
2011-07-19, 00:34:04,VALID,1005.25,VALID,0,INVALID,163.8,VALID,0,VALID,23.7991,VALID,56,VALID,0,
2011-07-19, 00:35:04,VALID,1005.23,VALID,0,INVALID,163.769,VALID,0,VALID,23.7991,VALID,56,VALID,0,
2011-07-19, 00:36:04,VALID,1005.21,VALID,0,INVALID,163.754,VALID,0,VALID,23.7991,VALID,56,VALID,0,
2011-07-19, 00:37:04,VALID,1005.22,VALID,0,INVALID,163.746,VALID,0,VALID,23.8203,VALID,56,VALID,0,
2011-07-19, 00:38:04,VALID,1005.19,VALID,0,INVALID,163.739,VALID,0,VALID,23.7991,VALID,56,VALID,0,
2011-07-19, 00:39:04,VALID,1005.19,VALID,0,INVALID,163.784,VALID,0,VALID,23.7796,VALID,56,VALID,0,
2011-07-19, 00:40:04,VALID,1005.18,VALID,0,INVALID,163.762,VALID,0.100563,VALID,23.7991,VALID,56,VALID,0,
2011-07-19, 00:41:04,VALID,1005.14,VALID,0,INVALID,163.769,VALID,0,VALID,23.7796,VALID,56,VALID,0,
2011-07-19, 00:42:04,VALID,1005.14,VALID,0,INVALID,163.762,VALID,0,VALID,23.7796,VALID,56,VALID,0,
2011-07-19, 00:43:04,VALID,1005.12,VALID,0,INVALID,163.762,VALID,0,VALID,23.7407,VALID,56,VALID,0,
2011-07-19, 00:44:04,VALID,1005.13,VALID,0,INVALID,163.784,VALID,0,VALID,23.7212,VALID,56,VALID,0,
2011-07-19, 00:45:04,VALID,1005.11,VALID,0,INVALID,163.746,VALID,0,VALID,23.6823,VALID,55,VALID,0,
2011-07-19, 00:46:04,VALID,1005.1,VALID,0,INVALID,163.762,VALID,0,VALID,23.6628,VALID,10,VALID,0,
2011-07-19, 00:47:04,VALID,1005.1,VALID,0,INVALID,163.762,VALID,0,VALID,23.6434,VALID,8,VALID,0,
2011-07-19, 00:48:04,VALID,1005.04,VALID,0,INVALID,163.823,VALID,0.100563,VALID,23.6257,VALID,6,VALID,0,
2011-07-19, 00:49:04,VALID,1005.03,VALID,0,INVALID,163.769,VALID,0,VALID,23.6044,VALID,5,VALID,0,
2011-07-19, 00:50:04,VALID,1004.97,VALID,0,INVALID,163.769,VALID,0,VALID,23.6044,VALID,5,VALID,0,
2011-07-19, 00:51:04,VALID,1004.97,VALID,0,INVALID,163.762,VALID,0,VALID,23.6044,VALID,5,VALID,0,
2011-07-19, 00:52:04,VALID,1004.93,VALID,0,INVALID,163.8,VALID,0,VALID,23.585,VALID,5,VALID,0,
2011-07-19, 00:53:04,VALID,1004.93,VALID,0,INVALID,163.8,VALID,0.100563,VALID,23.6044,VALID,5,VALID,0,
2011-07-19, 00:54:04,VALID,1004.93,VALID,0,INVALID,163.762,VALID,0,VALID,23.5655,VALID,5,VALID,0,
2011-07-19, 00:55:04,VALID,1004.88,VALID,0,INVALID,163.792,VALID,0,VALID,23.5655,VALID,5,VALID,0,
2011-07-19, 00:56:04,VALID,1004.86,VALID,0,INVALID,163.777,VALID,0,VALID,23.5248,VALID,5,VALID,0,
2011-07-19, 00:57:04,VALID,1004.84,VALID,0,INVALID,163.853,VALID,0,VALID,23.546,VALID,5,VALID,0,
2011-07-19, 00:58:04,VALID,1004.83,VALID,0,INVALID,163.769,VALID,0,VALID,23.5266,VALID,5,VALID,0,
2011-07-19, 00:59:04,VALID,1004.81,VALID,0,INVALID,163.815,VALID,0,VALID,23.4859,VALID,5,VALID,0,
2011-07-19, 01:00:04,VALID,1004.76,VALID,0,INVALID,163.807,VALID,0,VALID,23.5071,VALID,5,VALID,0,
2011-07-19, 01:01:04,VALID,1004.78,VALID,0,INVALID,163.777,VALID,0.100563,VALID,23.4877,VALID,5,VALID,0,
2011-07-19, 01:02:04,VALID,1004.76,VALID,0,INVALID,163.792,VALID,0.100563,VALID,23.447,VALID,5,VALID,0,
2011-07-19, 01:03:04,VALID,1004.77,VALID,0,INVALID,163.777,VALID,0.100563,VALID,23.4894,VALID,5,VALID,0,
2011-07-19, 01:04:04,VALID,1004.74,VALID,0,INVALID,163.769,VALID,0.100563,VALID,23.4682,VALID,5,VALID,0,
2011-07-19, 01:05:04,VALID,1004.74,VALID,0,INVALID,163.815,VALID,0.100563,VALID,23.4275,VALID,5,VALID,0,
2011-07-19, 01:06:04,VALID,1004.74,VALID,0,INVALID,163.815,VALID,0.100563,VALID,23.4487,VALID,5,VALID,0,
2011-07-19, 01:07:04,VALID,1004.74,VALID,0,INVALID,163.861,VALID,0,VALID,23.4487,VALID,5,VALID,0,
2011-07-19, 01:08:04,VALID,1004.73,VALID,0,INVALID,163.807,VALID,0.100563,VALID,23.4487,VALID,5,VALID,0,
2011-07-19, 01:09:04,VALID,1004.73,VALID,0,INVALID,163.8,VALID,0,VALID,23.4293,VALID,5,VALID,0,
2011-07-19, 01:10:04,VALID,1004.69,VALID,0,INVALID,163.807,VALID,0,VALID,23.4098,VALID,5,VALID,0,
2011-07-19, 01:11:04,VALID,1004.71,VALID,0,INVALID,163.784,VALID,0.100563,VALID,23.4098,VALID,5,VALID,0,
2011-07-19, 01:12:04,VALID,1004.68,VALID,0,INVALID,163.777,VALID,0.100563,VALID,23.408,VALID,5,VALID,0,
2011-07-19, 01:13:04,VALID,1004.66,VALID,0,INVALID,163.8,VALID,0,VALID,23.4293,VALID,5,VALID,0,
2011-07-19, 01:14:04,VALID,1004.65,VALID,0,INVALID,163.762,VALID,0.100563,VALID,23.4098,VALID,5,VALID,0,
2011-07-19, 01:15:04,VALID,1004.61,VALID,0,INVALID,163.784,VALID,0,VALID,23.4311,VALID,5,VALID,0,
2011-07-19, 01:16:04,VALID,1004.61,VALID,0,INVALID,163.792,VALID,0.100563,VALID,23.3886,VALID,5,VALID,0,
2011-07-19, 01:17:04,VALID,1004.62,VALID,0,INVALID,163.769,VALID,0.100563,VALID,23.3904,VALID,5,VALID,0,
2011-07-19, 01:18:04,VALID,1004.61,VALID,0,INVALID,163.807,VALID,0.100563,VALID,23.3302,VALID,5,VALID,0,
2011-07-19, 01:19:04,VALID,1004.61,VALID,0,INVALID,163.8,VALID,0,VALID,23.3107,VALID,5,VALID,0,
2011-07-19, 01:20:04,VALID,1004.6,VALID,0,INVALID,163.815,VALID,0.100563,VALID,23.2913,VALID,5,VALID,0,
2011-07-19, 01:21:04,VALID,1004.59,VALID,0,INVALID,163.792,VALID,0.100563,VALID,23.3107,VALID,5,VALID,0,
2011-07-19, 01:22:04,VALID,1004.56,VALID,0,INVALID,163.769,VALID,0,VALID,23.3125,VALID,5,VALID,0,
2011-07-19, 01:23:04,VALID,1004.56,VALID,0,INVALID,163.815,VALID,0,VALID,23.3125,VALID,5,VALID,0,
2011-07-19, 01:24:04,VALID,1004.57,VALID,0,INVALID,163.807,VALID,0,VALID,23.2931,VALID,5,VALID,0,
2011-07-19, 01:25:04,VALID,1004.56,VALID,0,INVALID,163.784,VALID,0,VALID,23.2736,VALID,5,VALID,0,
2011-07-19, 01:26:04,VALID,1004.54,VALID,0,INVALID,163.8,VALID,0,VALID,23.2736,VALID,5,VALID,0,
2011-07-19, 01:27:04,VALID,1004.54,VALID,0,INVALID,163.777,VALID,0.100563,VALID,23.2524,VALID,5,VALID,0,
2011-07-19, 01:28:04,VALID,1004.52,VALID,0,INVALID,163.861,VALID,0.100563,VALID,23.2736,VALID,5,VALID,0,
2011-07-19, 01:29:04,VALID,1004.51,VALID,0,INVALID,163.792,VALID,0.100563,VALID,23.2736,VALID,5,VALID,0,
2011-07-19, 01:30:04,VALID,1004.52,VALID,0,INVALID,163.807,VALID,0.100563,VALID,23.2524,VALID,5,VALID,0,
2011-07-19, 01:31:04,VALID,1004.5,VALID,0,INVALID,163.823,VALID,0,VALID,23.2329,VALID,5,VALID,0,
2011-07-19, 01:32:04,VALID,1004.55,VALID,0,INVALID,163.815,VALID,0.100563,VALID,23.2134,VALID,5,VALID,0,
2011-07-19, 01:33:04,VALID,1004.52,VALID,0,INVALID,163.8,VALID,0.100563,VALID,23.2329,VALID,5,VALID,0,
2011-07-19, 01:34:04,VALID,1004.5,VALID,0,INVALID,163.853,VALID,0,VALID,23.2541,VALID,5,VALID,0,
2011-07-19, 01:35:04,VALID,1004.48,VALID,0,INVALID,163.815,VALID,0.100563,VALID,23.2329,VALID,5,VALID,0,
2011-07-19, 01:36:04,VALID,1004.49,VALID,0,INVALID,163.8,VALID,0,VALID,23.2329,VALID,5,VALID,0,
2011-07-19, 01:37:04,VALID,1004.44,VALID,0,INVALID,163.792,VALID,0,VALID,23.2347,VALID,5,VALID,0,
2011-07-19, 01:38:04,VALID,1004.48,VALID,0,INVALID,163.807,VALID,0,VALID,23.2541,VALID,5,VALID,0,
2011-07-19, 01:39:04,VALID,1004.45,VALID,0,INVALID,163.777,VALID,0.100563,VALID,23.2541,VALID,5,VALID,0,
2011-07-19, 01:40:04,VALID,1004.48,VALID,0,INVALID,163.815,VALID,0.100563,VALID,23.2134,VALID,5,VALID,0,
2011-07-19, 01:41:04,VALID,1004.5,VALID,0,INVALID,163.807,VALID,0.100563,VALID,23.2347,VALID,5,VALID,0,
2011-07-19, 01:42:04,VALID,1004.49,VALID,0,INVALID,163.853,VALID,0.100563,VALID,23.2134,VALID,5,VALID,0,
2011-07-19, 01:43:04,VALID,1004.47,VALID,0,INVALID,163.807,VALID,0.100563,VALID,23.2541,VALID,5,VALID,0,
2011-07-19, 01:44:04,VALID,1004.47,VALID,0,INVALID,163.792,VALID,0,VALID,23.2736,VALID,5,VALID,0,
2011-07-19, 01:45:04,VALID,1004.43,VALID,0,INVALID,163.784,VALID,0.100563,VALID,23.2736,VALID,5,VALID,0,
2011-07-19, 01:46:04,VALID,1004.44,VALID,0,INVALID,163.845,VALID,0.100563,VALID,23.2736,VALID,5,VALID,0,
2011-07-19, 01:47:04,VALID,1004.4,VALID,0,INVALID,163.792,VALID,0.100563,VALID,23.2736,VALID,5,VALID,0,
2011-07-19, 01:48:04,VALID,1004.38,VALID,0,INVALID,163.823,VALID,0.100563,VALID,23.3125,VALID,5,VALID,0,
2011-07-19, 01:49:04,VALID,1004.4,VALID,0,INVALID,163.769,VALID,0.100563,VALID,23.2931,VALID,5,VALID,0,
2011-07-19, 01:50:04,VALID,1004.36,VALID,0,INVALID,163.777,VALID,0.100563,VALID,23.2524,VALID,5,VALID,0,
2011-07-19, 01:51:04,VALID,1004.4,VALID,0,INVALID,163.845,VALID,0.100563,VALID,23.2524,VALID,5,VALID,0,
2011-07-19, 01:52:04,VALID,1004.39,VALID,0,INVALID,163.823,VALID,0.100563,VALID,23.2524,VALID,5,VALID,0,
2011-07-19, 01:53:04,VALID,1004.38,VALID,0,INVALID,163.83,VALID,0.100563,VALID,23.2718,VALID,5,VALID,0,
2011-07-19, 01:54:04,VALID,1004.38,VALID,0,INVALID,163.83,VALID,0.100563,VALID,23.2524,VALID,5,VALID,0,
2011-07-19, 01:55:04,VALID,1004.38,VALID,0,INVALID,163.807,VALID,0.100563,VALID,23.2134,VALID,5,VALID,0,
2011-07-19, 01:56:04,VALID,1004.36,VALID,0,INVALID,163.8,VALID,0.100563,VALID,23.2329,VALID,5,VALID,0,
2011-07-19, 01:57:04,VALID,1004.32,VALID,0,INVALID,163.815,VALID,0.100563,VALID,23.2524,VALID,5,VALID,0,
2011-07-19, 01:58:04,VALID,1004.33,VALID,0,INVALID,163.8,VALID,0.100563,VALID,23.2718,VALID,5,VALID,0,
2011-07-19, 01:59:04,VALID,1004.3,VALID,0,INVALID,163.784,VALID,0.100563,VALID,23.2931,VALID,5,VALID,0,
2011-07-19, 02:00:04,VALID,1004.3,VALID,0,INVALID,163.792,VALID,0.100563,VALID,23.332,VALID,5,VALID,0,
2011-07-19, 02:01:04,VALID,1004.31,VALID,0,INVALID,163.777,VALID,0.100563,VALID,23.3497,VALID,5,VALID,0,
2011-07-19, 02:02:04,VALID,1004.31,VALID,0,INVALID,163.815,VALID,0.100563,VALID,23.3904,VALID,5,VALID,0,
2011-07-19, 02:03:04,VALID,1004.28,VALID,0,INVALID,163.8,VALID,0,VALID,23.3709,VALID,5,VALID,0,
2011-07-19, 02:04:04,VALID,1004.29,VALID,0,INVALID,163.777,VALID,0.100563,VALID,23.3497,VALID,5,VALID,0,
2011-07-19, 02:05:04,VALID,1004.27,VALID,0,INVALID,163.8,VALID,0,VALID,23.3709,VALID,5,VALID,0,
2011-07-19, 02:06:04,VALID,1004.29,VALID,0,INVALID,163.823,VALID,0.100563,VALID,23.3497,VALID,5,VALID,0,
2011-07-19, 02:07:04,VALID,1004.28,VALID,0,INVALID,163.792,VALID,0.100563,VALID,23.3709,VALID,5,VALID,0,
2011-07-19, 02:08:04,VALID,1004.27,VALID,0,INVALID,163.8,VALID,0.100563,VALID,23.3709,VALID,5,VALID,0,
2011-07-19, 02:09:04,VALID,1004.27,VALID,0,INVALID,163.8,VALID,0.100563,VALID,23.3514,VALID,5,VALID,0,
2011-07-19, 02:10:04,VALID,1004.27,VALID,0,INVALID,163.792,VALID,0.100563,VALID,23.332,VALID,5,VALID,0,
2011-07-19, 02:11:04,VALID,1004.26,VALID,0,INVALID,163.815,VALID,0.100563,VALID,23.332,VALID,5,VALID,0,
2011-07-19, 02:12:04,VALID,1004.26,VALID,0,INVALID,163.8,VALID,0.100563,VALID,23.3302,VALID,5,VALID,0,
2011-07-19, 02:13:04,VALID,1004.26,VALID,0,INVALID,163.8,VALID,0.100563,VALID,23.3302,VALID,5,VALID,0,
2011-07-19, 02:14:04,VALID,1004.26,VALID,0,INVALID,163.762,VALID,0.100563,VALID,23.3107,VALID,5,VALID,0,
2011-07-19, 02:15:04,VALID,1004.21,VALID,0,INVALID,163.807,VALID,0,VALID,23.332,VALID,5,VALID,0,
2011-07-19, 02:16:04,VALID,1004.24,VALID,0,INVALID,163.823,VALID,0,VALID,23.3514,VALID,5,VALID,0,
2011-07-19, 02:17:04,VALID,1004.21,VALID,0,INVALID,163.807,VALID,0,VALID,23.3514,VALID,5,VALID,0,
2011-07-19, 02:18:04,VALID,1004.2,VALID,0,INVALID,163.792,VALID,0,VALID,23.3921,VALID,5,VALID,0,
2011-07-19, 02:19:04,VALID,1004.22,VALID,0,INVALID,163.815,VALID,0,VALID,23.3709,VALID,5,VALID,0,
2011-07-19, 02:20:04,VALID,1004.19,VALID,0,INVALID,163.807,VALID,0,VALID,23.3904,VALID,5,VALID,0,
2011-07-19, 02:21:04,VALID,1004.19,VALID,0,INVALID,163.807,VALID,0,VALID,23.3904,VALID,5,VALID,0,
2011-07-19, 02:22:04,VALID,1004.19,VALID,0,INVALID,163.8,VALID,0,VALID,23.4098,VALID,5,VALID,0,
2011-07-19, 02:23:04,VALID,1004.22,VALID,0,INVALID,163.792,VALID,0,VALID,23.4311,VALID,5,VALID,0,
2011-07-19, 02:24:04,VALID,1004.21,VALID,0,INVALID,163.784,VALID,0,VALID,23.4293,VALID,5,VALID,0,
2011-07-19, 02:25:04,VALID,1004.21,VALID,0,INVALID,163.853,VALID,0,VALID,23.4098,VALID,5,VALID,0,
2011-07-19, 02:26:04,VALID,1004.25,VALID,0,INVALID,163.792,VALID,0,VALID,23.3904,VALID,5,VALID,0,
2011-07-19, 02:27:04,VALID,1004.24,VALID,0,INVALID,163.8,VALID,0,VALID,23.3514,VALID,35,VALID,0,
2011-07-19, 02:28:04,VALID,1004.23,VALID,0,INVALID,163.83,VALID,0,VALID,23.3514,VALID,35,VALID,0,
2011-07-19, 02:29:04,VALID,1004.19,VALID,0,INVALID,163.8,VALID,0,VALID,23.3514,VALID,35,VALID,0,
2011-07-19, 02:30:04,VALID,1004.19,VALID,0,INVALID,163.762,VALID,0,VALID,23.3727,VALID,35,VALID,0,
2011-07-19, 02:31:04,VALID,1004.16,VALID,0,INVALID,163.83,VALID,0,VALID,23.3514,VALID,35,VALID,0,
2011-07-19, 02:32:04,VALID,1004.16,VALID,0,INVALID,163.861,VALID,0,VALID,23.3709,VALID,35,VALID,0,
2011-07-19, 02:33:04,VALID,1004.12,VALID,0,INVALID,163.8,VALID,0,VALID,23.3904,VALID,24,VALID,0,
2011-07-19, 02:34:04,VALID,1004.12,VALID,0,INVALID,163.792,VALID,0,VALID,23.4098,VALID,25,VALID,0,
2011-07-19, 02:35:04,VALID,1004.12,VALID,0,INVALID,163.83,VALID,0,VALID,23.4293,VALID,22,VALID,0,
2011-07-19, 02:36:04,VALID,1004.12,VALID,0,INVALID,163.784,VALID,0,VALID,23.47,VALID,20,VALID,0,
2011-07-19, 02:37:04,VALID,1004.14,VALID,0,INVALID,163.815,VALID,0,VALID,23.5089,VALID,20,VALID,0,
2011-07-19, 02:38:04,VALID,1004.11,VALID,0,INVALID,163.777,VALID,0,VALID,23.5089,VALID,20,VALID,0,
2011-07-19, 02:39:04,VALID,1004.11,VALID,0,INVALID,163.769,VALID,0,VALID,23.5071,VALID,20,VALID,0,
2011-07-19, 02:40:04,VALID,1004.13,VALID,0,INVALID,163.762,VALID,0,VALID,23.5478,VALID,20,VALID,0,
2011-07-19, 02:41:04,VALID,1004.12,VALID,0,INVALID,163.777,VALID,0,VALID,23.5478,VALID,20,VALID,0,
2011-07-19, 02:42:04,VALID,1004.11,VALID,0,INVALID,163.762,VALID,0,VALID,23.5266,VALID,20,VALID,0,
2011-07-19, 02:43:04,VALID,1004.09,VALID,0,INVALID,163.762,VALID,0,VALID,23.5478,VALID,20,VALID,0,
2011-07-19, 02:44:04,VALID,1004.1,VALID,0,INVALID,163.762,VALID,0,VALID,23.5478,VALID,21,VALID,0,
2011-07-19, 02:45:04,VALID,1004.12,VALID,0,INVALID,163.784,VALID,0,VALID,23.5478,VALID,21,VALID,0,
2011-07-19, 02:46:04,VALID,1004.09,VALID,0,INVALID,163.8,VALID,0,VALID,23.5868,VALID,21,VALID,0,
2011-07-19, 02:47:04,VALID,1004.09,VALID,0,INVALID,163.838,VALID,0,VALID,23.6452,VALID,21,VALID,0,
2011-07-19, 02:48:04,VALID,1004.12,VALID,0,INVALID,163.784,VALID,0,VALID,23.7035,VALID,33,VALID,0,
2011-07-19, 02:49:04,VALID,1004.12,VALID,0,INVALID,163.8,VALID,0,VALID,23.7619,VALID,25,VALID,0,
2011-07-19, 02:50:04,VALID,1004.11,VALID,0,INVALID,163.754,VALID,0,VALID,23.8203,VALID,25,VALID,0,
2011-07-19, 02:51:04,VALID,1004.13,VALID,0,INVALID,163.731,VALID,0,VALID,23.8398,VALID,7,VALID,0,
2011-07-19, 02:52:04,VALID,1004.1,VALID,0,INVALID,163.769,VALID,0,VALID,23.8185,VALID,5,VALID,0,
2011-07-19, 02:53:04,VALID,1004.13,VALID,0,INVALID,163.762,VALID,0,VALID,23.8593,VALID,72,VALID,0,
2011-07-19, 02:54:04,VALID,1004.13,VALID,0,INVALID,163.739,VALID,0,VALID,23.9177,VALID,27,VALID,0,
2011-07-19, 02:55:04,VALID,1004.14,VALID,0,INVALID,163.739,VALID,0,VALID,24.015,VALID,27,VALID,0,
2011-07-19, 02:56:04,VALID,1004.15,VALID,0,INVALID,163.777,VALID,0,VALID,24.0734,VALID,29,VALID,0,
2011-07-19, 02:57:04,VALID,1004.13,VALID,0,INVALID,163.716,VALID,0,VALID,24.1123,VALID,28,VALID,0,
2011-07-19, 02:58:04,VALID,1004.13,VALID,0,INVALID,163.784,VALID,0,VALID,24.1318,VALID,28,VALID,0,
2011-07-19, 02:59:04,VALID,1004.11,VALID,0,INVALID,163.754,VALID,0,VALID,24.1105,VALID,28,VALID,0,
2011-07-19, 03:00:04,VALID,1004.11,VALID,0,INVALID,163.723,VALID,0,VALID,24.1105,VALID,28,VALID,0,
2011-07-19, 03:01:04,VALID,1004.12,VALID,0,INVALID,163.746,VALID,0.100563,VALID,24.0892,VALID,28,VALID,0,
2011-07-19, 03:02:04,VALID,1004.13,VALID,0,INVALID,163.746,VALID,0.100563,VALID,24.1087,VALID,29,VALID,0,
2011-07-19, 03:03:04,VALID,1004.11,VALID,0,INVALID,163.746,VALID,0,VALID,24.091,VALID,29,VALID,0,
2011-07-19, 03:04:04,VALID,1004.1,VALID,0,INVALID,163.731,VALID,0.100563,VALID,24.0716,VALID,42,VALID,0,
2011-07-19, 03:05:04,VALID,1004.08,VALID,0,INVALID,163.754,VALID,0,VALID,24.0716,VALID,26,VALID,0,
2011-07-19, 03:06:05,VALID,1004.07,VALID,0,INVALID,163.746,VALID,0.100563,VALID,24.0716,VALID,22,VALID,0,
2011-07-19, 03:07:05,VALID,1004.06,VALID,0,INVALID,163.723,VALID,0,VALID,24.1689,VALID,14,VALID,0,
2011-07-19, 03:08:05,VALID,1004.06,VALID,0,INVALID,163.716,VALID,0.100563,VALID,24.2078,VALID,13,VALID,0,
2011-07-19, 03:09:05,VALID,1004.03,VALID,0,INVALID,163.716,VALID,0,VALID,24.2857,VALID,16,VALID,0,
2011-07-19, 03:10:05,VALID,1004.03,VALID,0,INVALID,163.739,VALID,0.100563,VALID,24.3636,VALID,22,VALID,0,
2011-07-19, 03:11:05,VALID,1004.05,VALID,0,INVALID,163.723,VALID,0,VALID,24.3636,VALID,52,VALID,0,
2011-07-19, 03:12:05,VALID,1004.04,VALID,0,INVALID,163.769,VALID,0,VALID,24.3617,VALID,33,VALID,0,
2011-07-19, 03:13:05,VALID,1004.04,VALID,0,INVALID,163.723,VALID,0,VALID,24.3636,VALID,25,VALID,0,
2011-07-19, 03:14:05,VALID,1004.04,VALID,0,INVALID,163.716,VALID,0,VALID,24.3228,VALID,23,VALID,0,
2011-07-19, 03:15:05,VALID,1004.01,VALID,0,INVALID,163.792,VALID,0,VALID,24.3052,VALID,22,VALID,0,
2011-07-19, 03:16:05,VALID,1004.01,VALID,0,INVALID,163.762,VALID,0,VALID,24.2857,VALID,22,VALID,0,
2011-07-19, 03:17:05,VALID,1003.99,VALID,0,INVALID,163.723,VALID,0,VALID,24.2468,VALID,22,VALID,0,
2011-07-19, 03:18:05,VALID,1004.04,VALID,0,INVALID,163.762,VALID,0,VALID,24.1884,VALID,22,VALID,0,
2011-07-19, 03:19:05,VALID,1004.03,VALID,0,INVALID,163.739,VALID,0,VALID,24.1689,VALID,22,VALID,0,
2011-07-19, 03:20:05,VALID,1004.01,VALID,0,INVALID,163.739,VALID,0,VALID,24.091,VALID,22,VALID,0,
2011-07-19, 03:21:05,VALID,1004.03,VALID,0,INVALID,163.746,VALID,0,VALID,24.0132,VALID,22,VALID,0,
2011-07-19, 03:22:05,VALID,1004.05,VALID,0,INVALID,163.731,VALID,0,VALID,23.9742,VALID,22,VALID,0,
2011-07-19, 03:23:05,VALID,1004.01,VALID,0,INVALID,163.762,VALID,0,VALID,23.9159,VALID,22,VALID,0,
2011-07-19, 03:24:05,VALID,1004.03,VALID,0,INVALID,163.746,VALID,0,VALID,23.8964,VALID,22,VALID,0,
2011-07-19, 03:25:05,VALID,1004.07,VALID,0,INVALID,163.807,VALID,0.100563,VALID,23.8575,VALID,22,VALID,0,
2011-07-19, 03:26:05,VALID,1004.07,VALID,0,INVALID,163.823,VALID,0.100563,VALID,23.8185,VALID,22,VALID,0,
2011-07-19, 03:27:05,VALID,1004.06,VALID,0,INVALID,163.792,VALID,0,VALID,23.7796,VALID,22,VALID,0,
2011-07-19, 03:28:05,VALID,1004.07,VALID,0,INVALID,163.777,VALID,0.100563,VALID,23.7194,VALID,22,VALID,0,
2011-07-19, 03:29:05,VALID,1004.08,VALID,0,INVALID,163.83,VALID,0.100563,VALID,23.7212,VALID,41,VALID,0,
2011-07-19, 03:30:05,VALID,1004.09,VALID,0,INVALID,163.807,VALID,0,VALID,23.661,VALID,59,VALID,0,
2011-07-19, 03:31:05,VALID,1004.09,VALID,0,INVALID,163.8,VALID,0.100563,VALID,23.6628,VALID,85,VALID,0,
2011-07-19, 03:32:05,VALID,1004.08,VALID,0,INVALID,163.784,VALID,0.100563,VALID,23.6452,VALID,85,VALID,0,
2011-07-19, 03:33:05,VALID,1004.1,VALID,0,INVALID,163.777,VALID,0.100563,VALID,23.6044,VALID,85,VALID,0,
2011-07-19, 03:34:05,VALID,1004.09,VALID,0,INVALID,163.777,VALID,0.100563,VALID,23.6239,VALID,76,VALID,0,
2011-07-19, 03:35:05,VALID,1004.09,VALID,0,INVALID,163.769,VALID,0,VALID,23.6434,VALID,60,VALID,0,
2011-07-19, 03:36:05,VALID,1004.07,VALID,0,INVALID,163.784,VALID,0.100563,VALID,23.6646,VALID,60,VALID,0,
2011-07-19, 03:37:05,VALID,1004.1,VALID,0,INVALID,163.853,VALID,0.100563,VALID,23.6628,VALID,61,VALID,0,
2011-07-19, 03:38:05,VALID,1004.08,VALID,0,INVALID,163.754,VALID,0.100563,VALID,23.6823,VALID,61,VALID,0,
2011-07-19, 03:39:05,VALID,1004.07,VALID,0,INVALID,163.769,VALID,0.100563,VALID,23.6823,VALID,31,VALID,0,
2011-07-19, 03:40:05,VALID,1004.08,VALID,0,INVALID,163.762,VALID,0,VALID,23.7,VALID,36,VALID,0,
2011-07-19, 03:41:05,VALID,1004.06,VALID,0,INVALID,163.746,VALID,0.100563,VALID,23.7407,VALID,36,VALID,0,
2011-07-19, 03:42:05,VALID,1004.05,VALID,0,INVALID,163.769,VALID,0.100563,VALID,23.7796,VALID,36,VALID,0,
2011-07-19, 03:43:05,VALID,1004.05,VALID,0,INVALID,163.784,VALID,0.100563,VALID,23.7973,VALID,26,VALID,0,
2011-07-19, 03:44:05,VALID,1004.07,VALID,0,INVALID,163.777,VALID,0,VALID,23.8769,VALID,25,VALID,0,
2011-07-19, 03:45:05,VALID,1004.06,VALID,0,INVALID,163.769,VALID,0,VALID,23.914,VALID,25,VALID,0,
2011-07-19, 03:46:05,VALID,1004.08,VALID,0,INVALID,163.739,VALID,0,VALID,23.9548,VALID,25,VALID,0,
2011-07-19, 03:47:05,VALID,1004.09,VALID,0,INVALID,163.762,VALID,0,VALID,23.953,VALID,25,VALID,0,
2011-07-19, 03:48:05,VALID,1004.08,VALID,0,INVALID,163.807,VALID,0.100563,VALID,24.0132,VALID,42,VALID,0,
2011-07-19, 03:49:05,VALID,1004.06,VALID,0,INVALID,163.754,VALID,0.100563,VALID,24.0308,VALID,30,VALID,0,
2011-07-19, 03:50:05,VALID,1004.08,VALID,0,INVALID,163.746,VALID,0.100563,VALID,24.0716,VALID,30,VALID,0,
2011-07-19, 03:51:05,VALID,1004.08,VALID,0,INVALID,163.731,VALID,0.100563,VALID,24.091,VALID,30,VALID,0,
2011-07-19, 03:52:05,VALID,1004.07,VALID,0,INVALID,163.731,VALID,0.100563,VALID,24.13,VALID,338,VALID,0,
2011-07-19, 03:53:05,VALID,1004.08,VALID,0,INVALID,163.746,VALID,0,VALID,24.091,VALID,250,VALID,0,